Location: West Cummington
(42.4920°N, 72.9680°W)
Time: 03:48:25
(UTC-04:00)

ATLAS 2AS CENTAUR R/B - Visible Passes

Search period start: 01 August 2014 00:00
Search period end: 11 August 2014 00:00
Orbit: 918 x 1294 km, 63.7° (Epoch: 29 July)

Date Brightness Start Highest point End Pass type
(mag) Time Alt. Az. Time Alt. Az. Time Alt. Az.
01 Aug 4.7 01:28:27 10° NNW 01:35:28 31° NE 01:42:26 10° E visible
01 Aug 3.0 03:19:18 10° NW 03:27:26 84° WSW 03:35:18 10° SSE visible
01 Aug 4.2 05:12:15 10° WNW 05:17:20 19° WSW 05:22:20 10° SW visible
01 Aug 5.3 20:55:42 10° WNW 21:01:32 24° NNW 21:07:40 10° NNE visible
01 Aug 5.5 22:51:29 10° NNW 22:55:49 15° N 23:00:14 10° NE visible
02 Aug 5.0 00:43:45 10° NNW 00:50:05 25° NNE 00:56:25 10° E visible
02 Aug 3.3 02:34:32 10° NNW 02:42:38 70° NE 02:50:30 10° SE visible
02 Aug 3.8 04:26:25 10° NW 04:33:05 30° WSW 04:39:35 10° SSW visible
02 Aug 5.5 22:05:36 10° NW 22:10:04 16° N 22:14:38 10° NNE visible
02 Aug 5.2 23:58:58 10° NNW 00:04:34 20° NNE 00:10:11 10° ENE visible
03 Aug 3.8 01:49:50 10° NNW 01:57:40 50° NE 02:05:20 10° ESE visible
03 Aug 3.3 03:41:08 10° NW 03:48:42 45° WSW 03:56:00 10° S visible
03 Aug 5.4 21:19:28 10° NW 21:24:21 18° NNW 21:29:24 10° NNE visible
03 Aug 5.4 23:13:59 10° NNW 23:18:55 17° NNE 23:23:53 10° NE visible
04 Aug 4.3 01:05:10 10° NNW 01:12:32 37° NE 01:19:48 10° ESE visible
04 Aug 3.0 02:56:08 10° NW 03:04:09 68° WSW 03:09:37 22° SSE visible
04 Aug 4.5 04:50:19 10° WNW 04:53:44 13° W 04:56:50 11° SW visible
04 Aug 5.3 20:33:16 10° WNW 20:38:45 21° NNW 20:44:28 10° NNE visible
04 Aug 5.4 22:28:43 10° NNW 22:33:11 16° N 22:37:42 10° NE visible
05 Aug 4.7 00:20:29 10° NNW 00:27:14 28° NNE 00:33:58 10° E visible
05 Aug 3.0 02:11:17 10° NW 02:19:26 85° NE 02:23:55 30° SE visible
05 Aug 4.0 04:03:43 10° WNW 04:09:34 23° WSW 04:11:12 21° WSW visible
05 Aug 5.4 21:43:04 10° NW 21:47:25 15° N 21:51:51 10° NNE visible
05 Aug 5.0 23:35:45 10° NNW 23:41:48 23° NNE 23:47:51 10° ENE visible
06 Aug 3.4 01:26:33 10° NNW 01:34:34 61° NE 01:38:54 29° ESE visible
06 Aug 3.5 03:18:10 10° NW 03:25:15 35° WSW 03:26:13 34° SW visible
06 Aug 5.4 20:57:04 10° NW 21:01:40 16° N 21:06:24 10° NNE visible
06 Aug 5.2 22:50:54 10° NNW 22:56:13 19° NNE 23:01:34 10° ENE visible
07 Aug 3.9 00:41:52 10° NNW 00:49:32 44° NE 00:54:16 23° ESE visible
07 Aug 3.1 02:33:00 10° NW 02:40:48 54° WSW 02:41:37 52° SW visible
07 Aug 5.3 22:05:49 10° NNW 22:10:32 16° N 22:15:17 10° NE visible
07 Aug 4.4 23:57:12 10° NNW 00:04:20 33° NE 00:09:53 16° E visible
08 Aug 2.9 01:48:05 10° NW 01:56:11 78° WSW 01:57:15 68° S visible
08 Aug 4.5 03:41:21 10° WNW 03:44:37 16° W 03:44:37 16° W visible
08 Aug 5.3 21:20:25 10° NNW 21:24:47 15° N 21:29:13 10° NE visible
08 Aug 4.7 23:12:30 10° NNW 23:18:59 26° NNE 23:25:27 10° E visible
09 Aug 3.1 01:03:17 10° NNW 01:11:25 75° NE 01:13:03 59° ESE visible
09 Aug 4.1 02:55:20 10° NW 03:00:26 26° W 03:00:26 26° W visible
09 Aug 5.3 20:34:36 10° NW 20:39:01 16° N 20:43:31 10° NNE visible
09 Aug 5.0 22:27:44 10° NNW 22:33:29 21° NNE 22:39:15 10° ENE visible
10 Aug 3.6 00:18:34 10° NNW 00:26:28 54° NE 00:28:59 40° E visible
10 Aug 3.6 02:09:58 10° NW 02:16:22 40° W 02:16:22 40° W visible
10 Aug 5.1 21:42:48 10° NNW 21:47:51 18° NNE 21:52:57 10° NE visible
10 Aug 4.0 23:33:54 10° NNW 23:41:22 39° NE 23:45:01 27° E visible
